This is the latest recevied weather packets stored in our database for station/object N2QKV-13. If no packets are shown the sender has not sent any weather packets the latest 10 day(s).
| Time | Temp. | Humidity | Pressure | Rain* | Wind** | Luminosity | Snow |
|---|---|---|---|---|---|---|---|
| 1777664704 | 16.11° C | 62% | 1011.3 hPa | 0 mm | - | - | - |
| 1777664404 | 16.11° C | 63% | 1011.4 hPa | 0 mm | - | - | - |
| 1777664103 | 16.11° C | 62% | 1011.5 hPa | 0 mm | - | - | - |
| 1777663804 | 16.11° C | 62% | 1011.6 hPa | 0 mm | - | - | - |
| 1777663503 | 16.11° C | 59% | 1011.6 hPa | 0 mm | - | - | - |
| 1777663204 | 15.56° C | 60% | 1011.8 hPa | 0 mm | - | - | - |
| 1777662904 | 15.56° C | 61% | 1011.8 hPa | 0 mm | - | - | - |
| 1777662603 | 15.56° C | 62% | 1011.9 hPa | 0 mm | - | - | - |
| 1777662304 | 16.11° C | 60% | 1012.1 hPa | 0 mm | - | - | - |
| 1777662003 | 16.11° C | 59% | 1011.9 hPa | 0 mm | - | - | - |
| 1777661704 | 16.11° C | 57% | 1012 hPa | 0 mm | - | - | - |
| 1777661404 | 16.11° C | 59% | 1012 hPa | 0 mm | - | - | - |
| 1777661103 | 15.56° C | 59% | 1012 hPa | 0 mm | - | - | - |
| 1777660804 | 16.11° C | 58% | 1012.1 hPa | 0 mm | - | - | - |
| 1777660504 | 16.11° C | 59% | 1012.1 hPa | 0 mm | - | - | - |
| 1777660204 | 16.11° C | 59% | 1012.1 hPa | 0 mm | - | - | - |
| 1777659903 | 16.11° C | 59% | 1012.1 hPa | 0 mm | - | - | - |
| 1777659604 | 16.11° C | 58% | 1012.1 hPa | 0 mm | - | - | - |
| 1777659304 | 16.11° C | 56% | 1012.1 hPa | 0 mm | - | - | - |
| 1777659004 | 16.11° C | 56% | 1012.1 hPa | 0 mm | - | - | - |
| 1777658703 | 15.56° C | 59% | 1012.1 hPa | 0 mm | - | - | - |
| 1777658403 | 15.56° C | 60% | 1012.1 hPa | 0 mm | - | - | - |
| 1777658104 | 15.56° C | 60% | 1012.1 hPa | 0 mm | - | - | - |
| 1777657804 | 15.56° C | 60% | 1012 hPa | 0 mm | - | - | - |
| 1777657503 | 15.56° C | 59% | 1012.1 hPa | 0 mm | - | - | - |
* Rain latest hour (hover to see other rain measurements)
** Current wind speed in m/s (hover to see current wind gust speed)